Terminal Aerodrome Forecast
Issued by NWS Houston/Galveston TX

Home | Current Version | Previous Version | Text Only | Print | Product List | Glossary On
Versions: 1 2 3 4 5 6 7 8 9 10 11 12 13 14 15 16 17 18 19 20 21 22 23 24 25 26 27 28 29 30 31 32 33 34 35 36 37 38 39 40 41 42 43 44 45 46 47 48 49 50
000
FTUS44 KHGX 012113 AAA
TAFHOU
TAF AMD
KHOU 012113Z 0121/0218 15009G17KT P6SM SCT040 BKN060 BKN250
     FM020300 VRB03KT P6SM SCT250
     FM021000 16004KT P6SM SCT015 SCT250
     FM021500 15008KT P6SM VCSH SCT025 BKN040=

USA.gov is the U.S. government's official web portal to all federal, state and local government web resources and services.